Location: Newark
(48.5156°N, 1.8989°W)
Time: 05:48:31
(UTC+00:00)

Transit 4A - Pass Details

Date: 27 November 2019
Orbit: 870 x 975 km, 66.8° (Epoch: 08 December)

Event Time Altitude Azimuth Distance (km) Brightness Sun altitude
Exits shadow 04:51:09 63° 320° (NW) 977 7.7 -26.1°
Maximum altitude 04:52:09 87° 239° (WSW) 885 7.6 -25.9°
Drops below altitude 10° 04:57:58 10° 149° (SSE) 2,512 10.6 -24.9°
Sets 05:00:25 0° 149° (SSE) 3,444 11.4 -24.5°
